Date String (YYYY-MM-DD hh:mm:ss) UTC,Instrument flags,Ambient pressure (hPa),Sample flow (lpm),Bypass flow (lpm),Sample temperature (°C),Ambient temperature (°C),ASC tube jacket temperature (°C),LED temperature (°C),Box temperature (°C),Sample RH (%),Span deviation,Mass concentration (μg/m³),Mass concentration (μg/m³),Mass concentration (μg/m³)
DateTimeUTC,F1_M11,P_M11,Q1_M11,Q2_M11,T1_M11,T2_M11,T3_M11,T4_M11,T5_M11,U1_M11,ZSPAN_M11,X2_M11,X0_M11,X1_M11
2021-09-21 10:00:00,,0838.2,4.99,0.00,28.1,27.3,00.0,37.1,29.9,19.8,0000.0,0002.41,0003.21,0002.14
2021-09-21 10:01:00,,0838.3,5.01,0.00,28.1,27.3,00.0,37.1,29.9,19.8,0000.0,0002.42,0003.25,0002.14
2021-09-21 10:02:00,,0838.3,5.00,0.00,28.1,27.3,00.0,37.1,29.9,19.8,0000.0,0002.43,0003.28,0002.14
2021-09-21 10:03:00,,0838.3,4.98,0.00,28.1,27.3,00.0,37.1,29.9,19.8,0000.0,0002.42,0003.26,0002.15
2021-09-21 10:04:00,,0838.3,5.01,0.00,28.1,27.3,00.0,37.1,29.9,19.8,0000.0,0002.44,0003.36,0002.15
2021-09-21 10:05:00,,0838.3,4.99,0.00,28.1,27.4,00.0,37.1,29.9,19.8,0000.0,0002.44,0003.38,0002.15
2021-09-21 10:06:00,,0838.3,5.01,0.00,28.1,27.4,00.0,37.1,30.0,19.8,0000.0,0002.42,0003.46,0002.16
2021-09-21 10:07:00,,0838.3,4.99,0.00,28.1,27.4,00.0,37.1,30.0,19.8,0000.0,0002.39,0003.31,0002.16
2021-09-21 10:08:00,,0838.4,5.00,0.00,28.2,27.3,00.0,37.2,30.0,19.8,0000.0,0002.43,0004.09,0002.17
2021-09-21 10:09:00,,0838.4,5.00,0.00,28.1,27.3,00.0,37.2,30.0,19.8,0000.0,0002.45,0004.18,0002.18
2021-09-21 10:10:00,,0838.4,5.00,0.00,28.1,27.3,00.0,37.2,29.9,19.8,0000.0,0002.45,0004.17,0002.18
2021-09-21 10:11:00,,0838.4,5.01,0.00,28.2,27.3,00.0,37.2,29.9,19.8,0000.0,0002.46,0004.17,0002.19
2021-09-21 10:12:00,,0838.4,4.99,0.00,28.2,27.3,00.0,37.2,30.0,19.8,0000.0,0002.45,0004.13,0002.20
2021-09-21 10:13:00,,0838.4,5.00,0.00,28.2,27.4,00.0,37.2,30.0,19.9,0000.0,0002.46,0004.37,0002.21
2021-09-21 10:14:00,,0838.4,5.00,0.00,28.2,27.4,00.0,37.2,30.0,19.9,0000.0,0002.49,0004.59,0002.21
2021-09-21 10:15:00,,0838.4,5.00,0.00,28.2,27.4,00.0,37.2,30.0,19.9,0000.0,0002.53,0005.68,0002.23
2021-09-21 10:16:00,,0838.4,5.00,0.00,28.2,27.4,00.0,37.2,30.0,19.9,0000.0,0002.57,0006.09,0002.24
2021-09-21 10:17:00,,0838.5,5.00,0.00,28.2,27.4,00.0,37.2,29.9,19.9,0000.0,0002.61,0006.11,0002.26
2021-09-21 10:18:00,,0838.4,5.01,0.00,28.1,27.3,00.0,37.2,29.9,19.9,0000.0,0002.63,0006.11,0002.28
2021-09-21 10:19:00,,0838.5,4.99,0.00,28.1,27.2,00.0,37.2,29.9,20.0,0000.0,0002.63,0005.38,0002.29
2021-09-21 10:20:00,,0838.5,4.99,0.00,28.1,27.2,00.0,37.2,29.8,20.0,0000.0,0002.68,0005.42,0002.31
2021-09-21 10:21:00,,0838.5,4.99,0.00,28.0,27.2,00.0,37.2,29.8,20.0,0000.0,0002.71,0005.48,0002.32
2021-09-21 10:22:00,,0838.5,5.01,0.00,28.0,27.1,00.0,37.2,29.8,20.0,0000.0,0002.76,0005.59,0002.32
2021-09-21 10:23:00,,0838.5,5.00,0.00,28.0,27.1,00.0,37.2,29.7,20.1,0000.0,0002.82,0005.73,0002.34
2021-09-21 10:24:00,,0838.5,5.00,0.00,28.0,27.1,00.0,37.2,29.7,20.1,0000.0,0002.84,0005.64,0002.34
2021-09-21 10:25:00,,0838.5,5.00,0.00,28.0,27.1,00.0,37.1,29.7,20.2,0000.0,0002.87,0005.44,0002.35
2021-09-21 10:26:00,,0838.5,5.00,0.00,28.0,27.1,00.0,37.1,29.7,20.2,0000.0,0002.86,0004.46,0002.36
2021-09-21 10:27:00,,0838.5,4.98,0.00,28.0,27.1,00.0,37.1,29.7,20.1,0000.0,0002.84,0004.25,0002.36
2021-09-21 10:28:00,,0838.5,5.01,0.00,28.0,27.1,00.0,37.1,29.8,20.1,0000.0,0002.83,0004.28,0002.37
2021-09-21 10:29:00,,0838.5,5.01,0.00,28.0,27.2,00.0,37.1,29.8,20.1,0000.0,0002.85,0004.27,0002.38
2021-09-21 10:30:00,,0838.6,4.99,0.00,28.0,27.2,00.0,37.1,29.8,20.0,0000.0,0002.90,0004.40,0002.39
2021-09-21 10:31:00,,0838.6,5.01,0.00,28.0,27.2,00.0,37.1,29.8,20.0,0000.0,0002.89,0004.40,0002.38
2021-09-21 10:32:00,,0838.6,5.00,0.00,28.0,27.2,00.0,37.1,29.8,20.0,0000.0,0002.91,0004.49,0002.39
2021-09-21 10:33:00,,0838.7,5.01,0.00,28.0,27.1,00.0,37.1,29.8,20.1,0000.0,0002.89,0004.59,0002.41
2021-09-21 10:34:00,,0838.6,5.00,0.00,28.0,27.1,00.0,37.1,29.8,20.1,0000.0,0002.87,0004.56,0002.42
2021-09-21 10:35:00,,0838.7,5.02,0.00,28.0,27.1,00.0,37.1,29.8,20.1,0000.0,0002.91,0005.42,0002.44
2021-09-21 10:36:00,,0838.6,4.99,0.00,28.0,27.1,00.0,37.1,29.8,20.1,0000.0,0002.91,0005.82,0002.44
2021-09-21 10:37:00,,0838.7,4.99,0.00,28.0,27.1,00.0,37.1,29.8,20.0,0000.0,0002.91,0005.79,0002.45
2021-09-21 10:38:00,,0838.7,5.01,0.00,28.0,27.1,00.0,37.1,29.8,20.0,0000.0,0002.87,0005.40,0002.45
2021-09-21 10:39:00,,0838.6,5.01,0.00,28.0,27.1,00.0,37.1,29.8,20.0,0000.0,0002.86,0005.37,0002.44
2021-09-21 10:40:00,,0838.7,5.00,0.00,28.0,27.1,00.0,37.1,29.8,20.0,0000.0,0002.83,0005.29,0002.44
2021-09-21 10:41:00,,0838.7,5.00,0.00,28.0,27.1,00.0,37.1,29.8,19.9,0000.0,0002.78,0005.16,0002.44
2021-09-21 10:42:00,,0838.7,5.00,0.00,28.0,27.2,00.0,37.1,29.8,19.9,0000.0,0002.77,0005.57,0002.45
2021-09-21 10:43:00,,0838.7,5.01,0.00,28.1,27.2,00.0,37.1,29.9,19.9,0000.0,0002.74,0006.33,0002.44
2021-09-21 10:44:00,,0838.7,5.00,0.00,28.1,27.2,00.0,37.1,29.9,19.8,0000.0,0002.73,0006.12,0002.44
2021-09-21 10:45:00,,0838.8,5.00,0.00,28.1,27.2,00.0,37.1,29.9,19.8,0000.0,0002.72,0006.08,0002.44
2021-09-21 10:46:00,,0838.8,4.99,0.00,28.1,27.2,00.0,37.1,29.9,19.8,0000.0,0002.70,0005.30,0002.44
2021-09-21 10:47:00,,0838.9,5.00,0.00,28.1,27.2,00.0,37.1,29.9,19.8,0000.0,0002.71,0004.82,0002.45
2021-09-21 10:48:00,,0838.8,5.01,0.00,28.1,27.2,00.0,37.2,29.9,19.8,0000.0,0002.74,0004.87,0002.46
2021-09-21 10:49:00,,0838.8,4.99,0.00,28.1,27.3,00.0,37.2,29.9,19.8,0000.0,0002.76,0004.87,0002.46
2021-09-21 10:50:00,,0838.9,4.99,0.00,28.1,27.3,00.0,37.2,29.9,19.8,0000.0,0002.77,0004.86,0002.46
2021-09-21 10:51:00,,0838.9,4.99,0.00,28.1,27.3,00.0,37.2,29.9,19.7,0000.0,0002.82,0005.12,0002.48
2021-09-21 10:52:00,,0838.9,5.00,0.00,28.1,27.3,00.0,37.2,30.0,19.7,0000.0,0002.88,0006.61,0002.48
2021-09-21 10:53:00,,0838.8,5.00,0.00,28.1,27.3,00.0,37.2,30.0,19.8,0000.0,0002.87,0006.26,0002.48
2021-09-21 10:54:00,,0838.8,5.00,0.00,28.1,27.3,00.0,37.2,29.9,19.7,0000.0,0002.89,0005.50,0002.49
2021-09-21 10:55:00,,0838.9,5.00,0.00,28.1,27.3,00.0,37.2,29.9,19.7,0000.0,0002.91,0005.55,0002.48
2021-09-21 10:56:00,,0839.0,5.01,0.00,28.1,27.3,00.0,37.2,29.9,19.6,0000.0,0002.92,0005.60,0002.47
2021-09-21 10:57:00,,0839.0,4.99,0.00,28.2,27.3,00.0,37.2,29.9,19.6,0000.0,0002.91,0005.99,0002.47
2021-09-21 10:58:00,,0839.0,4.99,0.00,28.2,27.3,00.0,37.2,29.9,19.6,0000.0,0002.90,0007.12,0002.47
2021-09-21 10:59:00,,0839.0,5.00,0.00,28.2,27.3,00.0,37.2,29.9,19.6,0000.0,0002.87,0007.55,0002.45
